Regional Weather Roundup
Issued by NWS Charleston, SC

Current Version | Previous Version | Graphics & Text | Print | Product List | Glossary On
Versions: 1 2 3 4 5 6 7 8 9 10 11 12 13 14 15 16 17 18 19 20 21 22 23 24 25 26 27 28 29 30 31 32 33 34 35 36 37 38 39 40 41 42 43 44 45 46 47 48 49 50
000
ASUS42 KCHS 101612
RWRCHS

REGIONAL WEATHER ROUNDUP
NATIONAL WEATHER SERVICE CHARLESTON SC
1100 AM EST SAT DEC 10 2016

NOTE: "FAIR" INDICATES FEW OR NO CLOUDS BELOW 12,000 FEET WITH NO
SIGNIFICANT WEATHER AND/OR OBSTRUCTIONS TO VISIBILITY.

NOT ALL STATIONS ARE QUALITY CONTROLLED. USE DATA WITH CAUTION...
ESPECIALLY DEWPOINT OBSERVATIONS.

SCZ027-030-031-034>040-042>050-101700-
...SOUTHEAST SOUTH CAROLINA...

CITY           SKY/WX    TMP DP  RH WIND       PRES   REMARKS
N CHARLESTON   MOSUNNY   45  21  38 NE8       30.55F
WATERFRONT PRK   N/A     44  29  55 NE8       30.55R
MOUNT PLEASANT NOT AVBL
JOHNS ISLAND   FAIR      46  27  46 NE9       30.54F
PINOPOLIS        N/A     37  23  56 E5        30.50S WCI  34
MONCKS CORNER  FAIR      41  16  36 NE5       30.56F
SUMMERVILLE    FAIR      43  23  45 N7        30.56F
BEAUFORT MCAS  SUNNY     47  23  38 E8        30.54F
BEAUFORT ARPT  FAIR      45  28  53 NE10      30.53F HAZE
HILTON HEAD IS SUNNY     50  23  34 N7        30.54S
WALTERBORO     SUNNY     45  23  42 E7        30.56F
ALLENDALE      FAIR      41  23  48 VRB5      30.55F

...SOUTHERN MIDLANDS AND PEE DEE...

CITY           SKY/WX    TMP DP  RH WIND       PRES   REMARKS
GEORGETOWN     NOT AVBL
KINGSTREE        N/A     37  19  48 NE3       30.58S
ORANGEBURG     SUNNY     39  20  46 VRB5      30.56F WCI  36
BARNWELL       NOT AVBL
AIKEN          FAIR      36  19  51 E3        30.59R
MANNING        FAIR      37  19  48 N3        30.57F
COLUMBIA       SUNNY     39  18  42 CALM      30.58R
SUMTER         SUNNY     39  17  41 NE5       30.55S WCI  35
FLORENCE       SUNNY     38  19  46 NE6       30.57F WCI  33
MYRTLE BEACH   SUNNY     39  19  45 N9        30.58F WCI  33
N MYRTLE BEACH SUNNY     39  19  44 NE6       30.55F WCI  35

$$

GAZ063-065-086>088-099>101-113>116-118-119-134>141-150-101700-
...SOUTHEAST GEORGIA...

CITY           SKY/WX    TMP DP  RH WIND       PRES   REMARKS
SAVANNAH ARPT  MOSUNNY   49  23  36 NE10      30.54S
HUNTER AAF     SUNNY     49  33  54 NE10      30.50F
FORT STEWART   SUNNY     48  28  45 N6        30.51S
STATESBORO     SUNNY     45  26  48 E3        30.55F
SYLVANIA       SUNNY    N/A N/A N/A E6        30.56F
CLAXTON        FAIR      47  26  45 NE8       30.54F

...CSRA...CENTRAL AND FAR SOUTHEAST GEORGIA...

CITY           SKY/WX    TMP DP  RH WIND       PRES   REMARKS
THOMSON        SUNNY     41  26  53 CALM      30.61R
AUGUSTA-BUSH   SUNNY     42  22  44 CALM      30.57R
AUGUSTA-DANIEL SUNNY     41  19  41 E6        30.57R
SWAINSBORO     FAIR      43  23  45 E7        30.55F
VIDALIA        SUNNY     46  32  57 E6        30.54F
EASTMAN        FAIR      48   7  18 SE6       30.56F
HAZLEHURST     FAIR      47  26  44 NE8       30.53F
ALMA           SUNNY     48  22  35 VRB6      30.52S
WAYCROSS       SUNNY     52  32  45 E8        30.51S
JESUP          FAIR      50  34  53 NE7       30.52S
BAXLEY         FAIR      48  30  49 E6        30.52F
BRUNSWICK      SUNNY     54  43  66 NE10G16   30.50S
SAINT SIMONS   SUNNY     54  40  59 NE16      30.48S

$$

SCZ027-028-034-036>038-045-046-048>050-GAZ119-141-101700-
...LAKE AND SUPPLEMENTAL COASTAL OBSERVATIONS...

STATION/POSITION TIME  TEMP    WIND        PRES    WAVE   SWELL
                       AIR SEA DIR/SP/G            HT/PER HT/PER/DIR
                 (UTC) (F)     (DEG/KT/KT) (MB)    (FT/S) (FT/S/D)
WINYAH BAY       1445   37      40/  5     1035.0
LAKE MURRAY      1520   35      70/  2/  6 1034.5
ACE BASIN NERRS  1445   41      20/  4     1034.0
FORT PULASKI     1548   47 59   40/ 11/ 13 1033.7F
SAPELO ISLAND    1500   51      20/ 10     1033.0

$$

ANZ835-935-AMZ111-154-330-350-352-354-370-450-454-472-101700-
...C-MAN AND BUOY OBSERVATIONS...

STATION/POSITION TIME  TEMP    WIND        PRES    WAVE   SWELL
                       AIR SEA DIR/SP/G            HT/PER HT/PER/DIR
                 (UTC) (F)     (DEG/KT/KT) (MB)    (FT/S) (FT/S/D)
BUOY 41004       1550   49 73   20/ 14/ 17 1032.8F   3/ 5   2/110/ 9
BUOY 41008       1550   53 62   40/ 16/ 21 1031.9F   3/ 5   2/ 90/ 8
FOLLY BEACH CMAN 1500   43      30/ 13/ 16 1034.9R
CAPERS NEARSHORE NOT AVBL
FRIPP NEARSHORE  1508   47 59   30/ 16/ 21 1033.9R


STATION/POSITION TIME  TEMP    WIND        PRES    WAVE   SWELL
                       AIR SEA DIR/SP/G            HT/PER HT/PER/DIR
                 (UTC) (F)     (DEG/KT/KT) (MB)    (FT/S) (FT/S/D)
5E ST. MARYS GA  1600      63                N/A     4/ 5
FRYING PAN BUOY  1550   45 72  350/ 10/ 12 1033.8F   3/ 4   2/ 30/ 5
BUOY 41025       1550   43 77  360/ 12/ 16 1033.2F   5/ 7   3/ 30/ 7
CAPE LOOKOUT NC  1500   38     360/  9/ 11 1034.0R
BUOY 41002       1550   60 73   10/ 12/ 14 1030.0F   5/ 8   5/ 40/ 8
BUOY 41010       NOT AVBL
ST AUGUSTINE FL  1600   59 64   10/ 21/ 23 1030.9F


$$




USA.gov is the U.S. government's official web portal to all federal, state and local government web resources and services.